Location: Baia Mare
(47.6567°N, 23.5850°E)
Time: 07:26:18
(UTC+03:00)

ISS - Pass Details

Date: 07 November 2018
Orbit: 403 x 408 km, 51.6° (Epoch: 21 October)

Event Time Altitude Azimuth Distance (km) Brightness Sun altitude
Exits shadow 04:49:09 24° 51° (NE) 890 -1.6 -25.4°
Drops below altitude 10° 04:50:46 10° 68° (ENE) 1,464 -0.1 -25.1°
Sets 04:52:56 0° 76° (ENE) 2,325 1.3 -24.7°
